Location: Rana
(34.0895°N, 117.3200°W)
Time: 13:05:00
(UTC+00:00)

Daily predictions for brighter satellites

Satellite Brightness Start Highest point End
(mag) Time Altitude Azimuth Time Altitude Azimuth Time Altitude Azimuth
Cosmos-2242 3.0 12:03:08 10° N 12:07:28 84° W 12:11:44 10° S
ATLAS 5 CENTAUR R/B 1.0 12:04:58 10° SW 12:08:09 58° WNW 12:11:30 10° NNE
Cosmos 1939 Rocket 3.9 12:05:47 10° NNE 12:09:37 47° E 12:13:24 10° S
Cosmos 1515 3.6 12:06:21 10° N 12:09:49 76° E 12:13:16 10° S
